Location: Grantsboro
(35.1404°N, 76.8424°W)
Time: 19:21:38
(UTC+00:00)

Cosmos 1697 Rocket - Pass Details

Date: 18 January 2020
Orbit: 833 x 843 km, 71.0° (Epoch: 16 February)

Event Time Altitude Azimuth Distance (km) Brightness Sun altitude
Exits shadow 10:31:43 15° 220° (SW) 2,112 4.5 -20.8°
Maximum altitude 10:36:16 54° 294° (WNW) 1,008 2.7 -19.9°
Drops below altitude 10° 10:41:46 10° 12° (NNE) 2,447 5.1 -18.8°
Sets 10:44:16 0° 17° (NNE) 3,384 5.9 -18.3°
